Location: Les Coudrans
(46.1056°N, 1.1158°W)
Time: 20:22:30
(UTC+00:00)

USA 307 - Pass Details

Date: 03 March 2021
Orbit: 567 x 577 km, 54.0° (Epoch: 20 April)

Event Time Altitude Azimuth Distance (km) Brightness Sun altitude
Rises 18:13:47 0° 268° (W) 2,784 9.5 -4.3°
Reaches altitude 10° 18:16:12 10° 277° (W) 1,885 7.3 -4.7°
Maximum altitude 18:20:09 35° 344° (NNW) 941 4.1 -5.4°
Drops below altitude 10° 18:24:06 10° 51° (NE) 1,882 5.1 -6.0°
Enters shadow 18:25:24 - 57° (ENE) 2,358 5.5 -6.3°
